QPF
0.03 0.03 0.03 0.04 0.04 0.04 0.04 0.03 0.02 0.02 0.02 0.01 0.01 0.01 0.01 0.01 0.01 0.02 0.01 0.01 0.03 0.06 0.06 0.04 0.02 0.02 0.02 0.02 0.02 0.01 0.01 0.01 0.01 0.02 0.02 0.02 0.03 0.02 0.02 0.02 0.03 0.03 0.03
0.02 0.02 0.01 0.02 0.03 0.04 0.03 0.03 0.02 0.02 0.03 0.03 0.02 0.02 0.01 0.01 0.01 0.02 0.01 0.01 0.02 0.03 0.04 0.03 0.01 0.01 0.01 0.02 0.02 0.02 0.01 0.01 0.01 0.02 0.02 0.02 0.02 0.02 0.01 0.02 0.02 0.02 0.02
0.02 0.02 0.01 0.01 0.02 0.03 0.03 0.03 0.03 0.02 0.03 0.03 0.03 0.02 0.01 0.01 0.01 0.01 0.01 0.01 0.02 0.03 0.03 0.02 0.02 0.02 0.03 0.03 0.03 0.02 0.01 0.02 0.02 0.02 0.03 0.03 0.02 0.02 0.02 0.02 0.02 0.02 0.03
0.01 0.01 0.01 0.02 0.03 0.02 0.02 0.02 0.03 0.04 0.04 0.02 0.03 0.02 0.01 0.01 0.01 0.01 0.02 0.03 0.03 0.02 0.03 0.02 0.02 0.03 0.05 0.05 0.04 0.03 0.02 0.03 0.03 0.03 0.03 0.03 0.03 0.03 0.03 0.03 0.03 0.02 0.03
0.01 0.01 0.01 0.02 0.02 0.01 0.01 0.02 0.02 0.05 0.03 0.03 0.03 0.03 0.02 0.02 0.01 0.02 0.03 0.03 0.03 0.03 0.04 0.04 0.04 0.05 0.05 0.05 0.05 0.04 0.03 0.03 0.03 0.02 0.03 0.03 0.04 0.03 0.04 0.04 0.04 0.04 0.04
0.01 0.01 0.01 0.01 0.01 0.01 0.02 0.01 0.01 0.02 0.03 0.03 0.03 0.03 0.03 0.02 0.02 0.03 0.03 0.03 0.03 0.04 0.05 0.06 0.07 0.08 0.08 0.08 0.09 0.08 0.05 0.04 0.04 0.03 0.04 0.04 0.04 0.05 0.06 0.05 0.04 0.04 0.05
0.01 0.01 0.01 0.01 0.01 0.01 0.01 0.01 0.01 0.01 0.02 0.02 0.03 0.03 0.03 0.04 0.04 0.04 0.04 0.03 0.03 0.04 0.04 0.05 0.08 0.08 0.10 0.11 0.10 0.09 0.07 0.05 0.04 0.03 0.03 0.03 0.03 0.04 0.07 0.08 0.05 0.04 0.05
0.01 0.01 0.00 0.01 0.01 0.01 0.04 0.05 0.02 0.01 0.02 0.03 0.02 0.03 0.05 0.05 0.05 0.05 0.05 0.04 0.03 0.03 0.03 0.03 0.06 0.06 0.08 0.07 0.07 0.07 0.07 0.06 0.04 0.03 0.02 0.02 0.03 0.04 0.06 0.07 0.06 0.04 0.04
0.00 0.01 0.00 0.00 0.01 0.01 0.03 0.08 0.04 0.04 0.03 0.03 0.02 0.02 0.04 0.04 0.04 0.05 0.06 0.05 0.03 0.03 0.03 0.04 0.06 0.04 0.04 0.05 0.06 0.05 0.04 0.04 0.05 0.03 0.02 0.02 0.02 0.04 0.06 0.07 0.06 0.05 0.04
0.00 0.00 0.00 0.00 0.01 0.01 0.01 0.03 0.03 0.05 0.04 0.02 0.02 0.03 0.04 0.03 0.04 0.05 0.06 0.05 0.04 0.03 0.05 0.07 0.06 0.03 0.03 0.03 0.04 0.05 0.05 0.04 0.04 0.04 0.03 0.02 0.01 0.02 0.04 0.06 0.05 0.04 0.04
0.01 0.00 0.00 0.00 0.01 0.01 0.01 0.01 0.02 0.03 0.03 0.02 0.03 0.04 0.06 0.06 0.05 0.05 0.06 0.06 0.05 0.03 0.04 0.05 0.03 0.02 0.01 0.02 0.03 0.04 0.04 0.03 0.03 0.04 0.04 0.03 0.02 0.02 0.06 0.08 0.05 0.04 0.03
0.01 0.01 0.01 0.01 0.01 0.01 0.01 0.01 0.02 0.03 0.02 0.03 0.05 0.07 0.06 0.06 0.06 0.06 0.04 0.02 0.01 0.02 0.03 0.02 0.01 0.01 0.02 0.02 0.03 0.03 0.03 0.02 0.02 0.03 0.03 0.03 0.02 0.02 0.04 0.06 0.05 0.03 0.03
0.02 0.02 0.01 0.01 0.01 0.01 0.01 0.01 0.02 0.03 0.03 0.04 0.06 0.07 0.07 0.06 0.04 0.02 0.01 0.01 0.01 0.01 0.01 0.00 0.00 0.00 0.01 0.01 0.02 0.02 0.02 0.01 0.01 0.02 0.02 0.02 0.02 0.02 0.02 0.03 0.03 0.03 0.03
0.02 0.03 0.02 0.02 0.01 0.01 0.02 0.02 0.03 0.05 0.06 0.08 0.07 0.05 0.04 0.03 0.02 0.02 0.01 0.01 0.01 0.01 0.01 0.00 0.00 0.00 0.00 0.00 0.00 0.01 0.01 0.01 0.01 0.02 0.02 0.02 0.03 0.02 0.02 0.02 0.02 0.02 0.02
0.02 0.02 0.02 0.02 0.02 0.02 0.02 0.03 0.02 0.03 0.03 0.03 0.03 0.03 0.02 0.02 0.02 0.02 0.02 0.02 0.02 0.02 0.01 0.00 0.00 0.00 0.00 0.00 0.00 0.01 0.01 0.02 0.02 0.03 0.02 0.02 0.03 0.04 0.04 0.03 0.02 0.03 0.02
0.03 0.03 0.03 0.02 0.03 0.02 0.02 0.02 0.01 0.02 0.02 0.03 0.02 0.03 0.03 0.02 0.02 0.02 0.01 0.02 0.02 0.02 0.02 0.01 0.01 0.00 0.00 0.00 0.00 0.00 0.01 0.02 0.01 0.02 0.02 0.01 0.02 0.03 0.04 0.05 0.05 0.06 0.05
0.03 0.03 0.03 0.02 0.03 0.03 0.03 0.02 0.02 0.02 0.02 0.02 0.03 0.03 0.04 0.02 0.02 0.02 0.01 0.01 0.02 0.02 0.02 0.02 0.01 0.01 0.01 0.01 0.00 0.00 0.01 0.02 0.01 0.01 0.01 0.01 0.01 0.02 0.02 0.03 0.03 0.04 0.05
0.03 0.03 0.03 0.02 0.03 0.03 0.04 0.04 0.02 0.02 0.01 0.01 0.02 0.03 0.03 0.02 0.02 0.02 0.02 0.02 0.02 0.03 0.02 0.02 0.01 0.01 0.01 0.00 0.01 0.00 0.01 0.01 0.01 0.00 0.00 0.00 0.01 0.01 0.01 0.01 0.01 0.01 0.02
0.03 0.03 0.03 0.03 0.03 0.04 0.04 0.04 0.02 0.02 0.01 0.01 0.02 0.02 0.02 0.02 0.02 0.03 0.04 0.04 0.04 0.04 0.03 0.02 0.02 0.01 0.01 0.00 0.00 0.01 0.00 0.00 0.00 0.00 0.00 0.00 0.00 0.00 0.00 0.01 0.01 0.01 0.01
0.03 0.03 0.03 0.03 0.03 0.03 0.03 0.03 0.03 0.02 0.01 0.01 0.02 0.02 0.02 0.03 0.04 0.05 0.05 0.05 0.04 0.03 0.03 0.03 0.03 0.02 0.01 0.00 0.01 0.01 0.00 0.00 0.00 0.00 0.00 0.00 0.00 0.00 0.00 0.00 0.01 0.01 0.01
0.03 0.03 0.03 0.03 0.03 0.03 0.03 0.03 0.03 0.02 0.01 0.01 0.01 0.02 0.02 0.03 0.04 0.05 0.05 0.06 0.06 0.08 0.09 0.08 0.08 0.06 0.03 0.01 0.01 0.02 0.01 0.00 0.00 0.00 0.00 0.00 0.00 0.00 0.00 0.01 0.01 0.01 0.01
0.02 0.02 0.02 0.02 0.02 0.02 0.03 0.03 0.04 0.04 0.03 0.03 0.03 0.03 0.03 0.04 0.05 0.05 0.06 0.06 0.07 0.09 0.07 0.07 0.06 0.05 0.02 0.01 0.01 0.01 0.01 0.01 0.00 0.00 0.00 0.00 0.00 0.01 0.01 0.02 0.03 0.03 0.02
0.01 0.01 0.01 0.02 0.02 0.03 0.05 0.06 0.05 0.04 0.03 0.03 0.04 0.03 0.03 0.04 0.03 0.03 0.04 0.04 0.04 0.05 0.03 0.02 0.01 0.01 0.01 0.00 0.01 0.01 0.01 0.01 0.01 0.00 0.00 0.01 0.01 0.01 0.02 0.03 0.03 0.02 0.01
0.01 0.01 0.02 0.03 0.04 0.06 0.08 0.06 0.06 0.05 0.04 0.04 0.05 0.04 0.03 0.03 0.03 0.03 0.03 0.03 0.02 0.01 0.01 0.00 0.00 0.00 0.00 0.00 0.00 0.00 0.01 0.01 0.01 0.01 0.01 0.01 0.01 0.01 0.02 0.03 0.02 0.01 0.01
0.02 0.02 0.03 0.04 0.04 0.05 0.06 0.06 0.06 0.05 0.04 0.04 0.03 0.03 0.02 0.02 0.02 0.02 0.02 0.02 0.01 0.01 0.01 0.01 0.01 0.00 0.00 0.00 0.00 0.00 0.00 0.00 0.01 0.01 0.01 0.02 0.02 0.03 0.03 0.04 0.05 0.04 0.03
0.03 0.03 0.04 0.04 0.05 0.05 0.06 0.05 0.05 0.04 0.03 0.03 0.02 0.02 0.02 0.02 0.01 0.02 0.02 0.02 0.01 0.02 0.02 0.01 0.01 0.01 0.01 0.00 0.00 0.00 0.00 0.00 0.01 0.01 0.01 0.02 0.04 0.05 0.06 0.06 0.06 0.06 0.05
MSLP
1011.26 1011.45 1011.56 1011.57 1011.49 1011.37 1011.25 1011.18 1011.21 1011.34 1011.56 1011.85 1012.15 1012.43 1012.66 1012.81 1012.91 1012.97 1013.04 1013.16 1013.34 1013.60 1013.94 1014.33 1014.75 1015.16 1015.54 1015.89 1016.21 1016.51 1016.81 1017.14 1017.48 1017.84 1018.20 1018.52 1018.77 1018.95 1019.04 1019.05 1019.00 1018.93 1018.86
1011.18 1011.47 1011.67 1011.76 1011.74 1011.66 1011.56 1011.52 1011.58 1011.76 1012.04 1012.40 1012.77 1013.11 1013.38 1013.54 1013.62 1013.63 1013.63 1013.66 1013.76 1013.96 1014.24 1014.60 1015.00 1015.41 1015.78 1016.12 1016.42 1016.70 1016.98 1017.27 1017.59 1017.94 1018.30 1018.64 1018.95 1019.19 1019.36 1019.46 1019.50 1019.50 1019.50
1010.92 1011.29 1011.59 1011.76 1011.82 1011.79 1011.74 1011.74 1011.84 1012.07 1012.42 1012.85 1013.30 1013.71 1014.02 1014.21 1014.28 1014.26 1014.20 1014.15 1014.18 1014.30 1014.52 1014.83 1015.20 1015.57 1015.93 1016.24 1016.52 1016.76 1017.00 1017.25 1017.54 1017.87 1018.24 1018.61 1018.98 1019.31 1019.58 1019.79 1019.95 1020.06 1020.14
1010.51 1010.96 1011.35 1011.62 1011.76 1011.80 1011.81 1011.85 1012.00 1012.28 1012.68 1013.17 1013.69 1014.17 1014.54 1014.76 1014.84 1014.81 1014.71 1014.62 1014.58 1014.63 1014.79 1015.05 1015.36 1015.70 1016.02 1016.30 1016.54 1016.75 1016.94 1017.15 1017.41 1017.72 1018.08 1018.48 1018.90 1019.31 1019.70 1020.03 1020.32 1020.55 1020.74
1010.01 1010.54 1011.02 1011.39 1011.62 1011.74 1011.80 1011.89 1012.07 1012.38 1012.82 1013.36 1013.93 1014.46 1014.89 1015.16 1015.28 1015.26 1015.16 1015.04 1014.96 1014.96 1015.07 1015.27 1015.54 1015.84 1016.12 1016.36 1016.56 1016.72 1016.87 1017.03 1017.24 1017.52 1017.87 1018.29 1018.75 1019.23 1019.71 1020.16 1020.57 1020.93 1021.23
1009.51 1010.11 1010.68 1011.14 1011.46 1011.66 1011.77 1011.89 1012.08 1012.40 1012.86 1013.42 1014.02 1014.60 1015.08 1015.41 1015.57 1015.59 1015.51 1015.40 1015.31 1015.28 1015.36 1015.52 1015.75 1016.00 1016.24 1016.45 1016.61 1016.72 1016.82 1016.94 1017.10 1017.33 1017.66 1018.06 1018.54 1019.07 1019.62 1020.17 1020.69 1021.17 1021.57
1009.07 1009.73 1010.39 1010.94 1011.34 1011.60 1011.76 1011.89 1012.09 1012.40 1012.85 1013.40 1014.02 1014.62 1015.14 1015.52 1015.74 1015.81 1015.78 1015.69 1015.62 1015.59 1015.65 1015.78 1015.98 1016.19 1016.40 1016.57 1016.69 1016.76 1016.81 1016.88 1016.99 1017.17 1017.45 1017.83 1018.30 1018.85 1019.45 1020.07 1020.68 1021.26 1021.77
1008.76 1009.47 1010.20 1010.82 1011.29 1011.59 1011.78 1011.92 1012.11 1012.40 1012.81 1013.35 1013.95 1014.56 1015.11 1015.54 1015.81 1015.95 1015.98 1015.94 1015.89 1015.88 1015.93 1016.04 1016.21 1016.40 1016.57 1016.70 1016.79 1016.83 1016.84 1016.85 1016.91 1017.04 1017.27 1017.60 1018.05 1018.60 1019.22 1019.89 1020.57 1021.23 1021.84
1008.60 1009.35 1010.12 1010.80 1011.31 1011.64 1011.85 1011.99 1012.16 1012.42 1012.80 1013.30 1013.88 1014.49 1015.05 1015.51 1015.84 1016.04 1016.12 1016.13 1016.12 1016.13 1016.18 1016.29 1016.43 1016.59 1016.73 1016.84 1016.90 1016.90 1016.88 1016.86 1016.87 1016.96 1017.13 1017.42 1017.84 1018.36 1018.98 1019.67 1020.40 1021.14 1021.83
1008.61 1009.38 1010.17 1010.86 1011.39 1011.73 1011.94 1012.08 1012.23 1012.46 1012.81 1013.28 1013.84 1014.44 1015.01 1015.49 1015.86 1016.10 1016.24 1016.30 1016.32 1016.35 1016.41 1016.50 1016.62 1016.76 1016.88 1016.96 1017.00 1016.99 1016.95 1016.91 1016.89 1016.94 1017.08 1017.33 1017.71 1018.20 1018.81 1019.51 1020.27 1021.05 1021.81
1008.75 1009.52 1010.29 1010.97 1011.48 1011.83 1012.03 1012.17 1012.32 1012.54 1012.87 1013.32 1013.86 1014.45 1015.01 1015.51 1015.91 1016.19 1016.36 1016.45 1016.50 1016.54 1016.60 1016.69 1016.80 1016.91 1017.01 1017.08 1017.11 1017.10 1017.06 1017.01 1016.99 1017.03 1017.15 1017.38 1017.73 1018.20 1018.79 1019.47 1020.23 1021.03 1021.83
1008.98 1009.71 1010.45 1011.08 1011.56 1011.89 1012.09 1012.24 1012.40 1012.63 1012.96 1013.41 1013.95 1014.52 1015.09 1015.59 1016.00 1016.30 1016.49 1016.61 1016.68 1016.74 1016.80 1016.88 1016.97 1017.07 1017.16 1017.23 1017.26 1017.26 1017.24 1017.21 1017.21 1017.26 1017.38 1017.60 1017.94 1018.38 1018.95 1019.61 1020.35 1021.14 1021.94
1009.21 1009.90 1010.57 1011.14 1011.58 1011.88 1012.09 1012.26 1012.45 1012.71 1013.08 1013.55 1014.09 1014.66 1015.23 1015.73 1016.14 1016.44 1016.65 1016.79 1016.87 1016.94 1017.00 1017.08 1017.17 1017.27 1017.36 1017.43 1017.47 1017.49 1017.50 1017.51 1017.55 1017.63 1017.78 1018.01 1018.34 1018.77 1019.30 1019.93 1020.62 1021.37 1022.13
1009.38 1010.01 1010.60 1011.10 1011.50 1011.79 1012.01 1012.22 1012.47 1012.79 1013.20 1013.70 1014.26 1014.85 1015.40 1015.90 1016.30 1016.61 1016.83 1016.98 1017.08 1017.16 1017.24 1017.33 1017.42 1017.52 1017.62 1017.70 1017.76 1017.82 1017.86 1017.92 1018.00 1018.12 1018.31 1018.56 1018.90 1019.32 1019.82 1020.39 1021.03 1021.70 1022.40
1009.40 1009.97 1010.49 1010.94 1011.31 1011.60 1011.86 1012.13 1012.45 1012.84 1013.32 1013.86 1014.44 1015.03 1015.59 1016.07 1016.47 1016.78 1017.01 1017.18 1017.30 1017.41 1017.51 1017.61 1017.72 1017.84 1017.94 1018.04 1018.12 1018.21 1018.29 1018.39 1018.52 1018.69 1018.91 1019.20 1019.54 1019.95 1020.42 1020.94 1021.50 1022.09 1022.69
1009.22 1009.74 1010.22 1010.65 1011.01 1011.33 1011.65 1012.00 1012.40 1012.87 1013.41 1013.99 1014.60 1015.19 1015.74 1016.22 1016.61 1016.93 1017.17 1017.37 1017.52 1017.67 1017.80 1017.93 1018.07 1018.19 1018.31 1018.42 1018.53 1018.63 1018.74 1018.87 1019.04 1019.25 1019.51 1019.82 1020.18 1020.58 1021.02 1021.48 1021.97 1022.46 1022.96
1008.82 1009.32 1009.79 1010.22 1010.61 1010.99 1011.38 1011.82 1012.31 1012.86 1013.45 1014.07 1014.69 1015.28 1015.82 1016.29 1016.69 1017.02 1017.29 1017.52 1017.73 1017.92 1018.10 1018.27 1018.43 1018.58 1018.71 1018.82 1018.93 1019.04 1019.16 1019.32 1019.51 1019.75 1020.03 1020.36 1020.72 1021.11 1021.52 1021.94 1022.36 1022.78 1023.19
1008.22 1008.74 1009.22 1009.69 1010.14 1010.60 1011.08 1011.61 1012.18 1012.80 1013.44 1014.08 1014.70 1015.29 1015.82 1016.28 1016.68 1017.03 1017.34 1017.63 1017.89 1018.14 1018.38 1018.60 1018.79 1018.95 1019.09 1019.20 1019.30 1019.40 1019.52 1019.68 1019.87 1020.12 1020.42 1020.76 1021.12 1021.51 1021.90 1022.29 1022.66 1023.02 1023.36
1007.49 1008.04 1008.57 1009.11 1009.64 1010.19 1010.77 1011.38 1012.03 1012.69 1013.36 1014.01 1014.62 1015.19 1015.71 1016.18 1016.60 1016.98 1017.34 1017.69 1018.02 1018.34 1018.64 1018.91 1019.13 1019.31 1019.45 1019.55 1019.63 1019.71 1019.81 1019.95 1020.14 1020.39 1020.68 1021.02 1021.39 1021.78 1022.16 1022.53 1022.87 1023.20 1023.49
1006.71 1007.30 1007.91 1008.52 1009.15 1009.79 1010.46 1011.14 1011.83 1012.53 1013.20 1013.85 1014.45 1015.01 1015.52 1016.00 1016.45 1016.88 1017.30 1017.72 1018.13 1018.52 1018.88 1019.20 1019.45 1019.65 1019.78 1019.87 1019.93 1019.99 1020.07 1020.19 1020.36 1020.59 1020.88 1021.22 1021.58 1021.96 1022.34 1022.70 1023.04 1023.35 1023.63
1005.96 1006.61 1007.29 1007.98 1008.70 1009.42 1010.15 1010.89 1011.61 1012.32 1012.99 1013.62 1014.21 1014.76 1015.28 1015.77 1016.26 1016.75 1017.25 1017.75 1018.23 1018.70 1019.12 1019.48 1019.76 1019.97 1020.11 1020.19 1020.23 1020.27 1020.33 1020.43 1020.59 1020.80 1021.08 1021.40 1021.76 1022.14 1022.51 1022.87 1023.21 1023.52 1023.81
1005.33 1006.02 1006.76 1007.52 1008.30 1009.08 1009.86 1010.63 1011.37 1012.07 1012.73 1013.34 1013.92 1014.47 1015.01 1015.54 1016.08 1016.64 1017.21 1017.78 1018.34 1018.88 1019.35 1019.75 1020.06 1020.29 1020.43 1020.51 1020.55 1020.59 1020.64 1020.73 1020.87 1021.08 1021.35 1021.66 1022.00 1022.37 1022.73 1023.08 1023.42 1023.73 1024.03
1004.86 1005.57 1006.34 1007.14 1007.96 1008.78 1009.58 1010.36 1011.09 1011.79 1012.43 1013.04 1013.62 1014.19 1014.76 1015.33 1015.94 1016.56 1017.20 1017.85 1018.47 1019.06 1019.58 1020.01 1020.35 1020.59 1020.75 1020.84 1020.90 1020.94 1021.00 1021.10 1021.25 1021.45 1021.71 1022.01 1022.34 1022.68 1023.03 1023.37 1023.69 1024.00 1024.30
1004.56 1005.27 1006.04 1006.85 1007.68 1008.50 1009.30 1010.07 1010.80 1011.49 1012.13 1012.75 1013.34 1013.94 1014.55 1015.18 1015.85 1016.53 1017.24 1017.94 1018.61 1019.24 1019.78 1020.24 1020.60 1020.86 1021.05 1021.17 1021.25 1021.32 1021.41 1021.53 1021.69 1021.90 1022.16 1022.44 1022.75 1023.07 1023.39 1023.70 1024.01 1024.30 1024.58
1004.41 1005.08 1005.82 1006.61 1007.42 1008.23 1009.02 1009.78 1010.50 1011.19 1011.84 1012.48 1013.11 1013.75 1014.41 1015.09 1015.81 1016.55 1017.30 1018.04 1018.74 1019.38 1019.94 1020.41 1020.79 1021.07 1021.28 1021.43 1021.56 1021.67 1021.80 1021.95 1022.14 1022.37 1022.63 1022.90 1023.19 1023.48 1023.76 1024.04 1024.31 1024.57 1024.83
1004.36 1004.97 1005.66 1006.40 1007.18 1007.96 1008.73 1009.48 1010.20 1010.90 1011.58 1012.25 1012.92 1013.61 1014.33 1015.07 1015.83 1016.61 1017.38 1018.13 1018.83 1019.47 1020.03 1020.49 1020.87 1021.17 1021.41 1021.60 1021.77 1021.93 1022.11 1022.31 1022.53 1022.77 1023.03 1023.30 1023.56 1023.82 1024.07 1024.31 1024.55 1024.77 1025.00
Thickness
5796 5797 5796 5796 5793 5791 5789 5787 5785 5784 5783 5781 5778 5775 5773 5773 5773 5773 5772 5772 5771 5770 5768 5766 5764 5762 5760 5758 5756 5754 5752 5750 5750 5748 5746 5747 5749 5749 5750 5750 5750 5750 5749
5793 5794 5794 5794 5792 5790 5788 5786 5784 5783 5782 5780 5778 5775 5773 5771 5771 5771 5770 5770 5769 5768 5767 5764 5762 5760 5758 5755 5754 5752 5749 5748 5748 5745 5741 5738 5740 5744 5747 5747 5746 5747 5746
5793 5793 5793 5792 5791 5789 5787 5786 5783 5782 5781 5780 5777 5775 5771 5769 5767 5766 5766 5767 5767 5765 5764 5762 5761 5758 5756 5754 5752 5751 5748 5745 5745 5744 5740 5735 5732 5736 5740 5742 5743 5743 5742
5797 5795 5793 5792 5791 5790 5788 5785 5783 5781 5780 5778 5775 5771 5767 5763 5763 5763 5763 5763 5763 5763 5762 5760 5758 5757 5755 5753 5751 5750 5748 5745 5742 5742 5742 5740 5738 5733 5732 5736 5738 5739 5738
5799 5797 5796 5794 5792 5790 5787 5784 5781 5779 5778 5776 5773 5770 5766 5764 5762 5762 5760 5759 5759 5759 5758 5757 5756 5754 5752 5750 5749 5747 5746 5744 5741 5740 5739 5738 5737 5736 5732 5728 5731 5733 5734
5801 5798 5796 5794 5791 5789 5786 5783 5779 5777 5776 5774 5771 5768 5764 5761 5759 5757 5756 5755 5755 5755 5754 5754 5752 5751 5749 5748 5747 5745 5743 5742 5741 5739 5738 5736 5735 5733 5731 5727 5726 5726 5729
5800 5797 5794 5791 5788 5786 5784 5781 5777 5774 5773 5771 5769 5766 5763 5760 5757 5755 5753 5752 5751 5750 5750 5750 5749 5747 5746 5745 5744 5743 5742 5740 5738 5737 5735 5735 5734 5733 5730 5727 5723 5722 5723
5800 5797 5794 5792 5788 5785 5782 5778 5775 5773 5771 5769 5766 5763 5761 5758 5755 5753 5751 5749 5748 5747 5747 5746 5745 5743 5742 5742 5741 5739 5738 5737 5736 5734 5732 5731 5731 5730 5728 5725 5721 5718 5717
5799 5797 5793 5790 5787 5784 5780 5777 5774 5770 5768 5766 5763 5760 5758 5755 5752 5751 5749 5747 5745 5744 5743 5742 5740 5739 5738 5737 5736 5735 5734 5733 5731 5730 5729 5727 5727 5726 5725 5723 5722 5718 5712
5797 5795 5793 5789 5786 5783 5779 5776 5772 5768 5765 5762 5759 5757 5754 5752 5749 5747 5744 5742 5741 5740 5739 5737 5736 5734 5734 5733 5732 5730 5730 5728 5727 5726 5724 5723 5722 5721 5720 5719 5718 5717 5714
5795 5793 5791 5788 5784 5780 5775 5771 5768 5764 5760 5757 5754 5752 5749 5747 5745 5742 5740 5738 5737 5736 5734 5732 5731 5729 5728 5727 5726 5725 5724 5723 5722 5721 5720 5718 5717 5716 5715 5714 5713 5711 5709
5793 5790 5787 5784 5779 5775 5771 5768 5764 5760 5757 5754 5750 5747 5745 5743 5740 5737 5736 5734 5732 5731 5729 5727 5725 5724 5723 5722 5720 5719 5718 5717 5716 5715 5714 5712 5712 5710 5709 5708 5706 5705 5704
5788 5785 5781 5778 5775 5771 5768 5765 5760 5756 5753 5749 5746 5743 5741 5738 5735 5732 5731 5729 5727 5725 5723 5722 5720 5718 5717 5716 5715 5713 5712 5711 5709 5708 5707 5706 5705 5704 5703 5702 5700 5699 5699
5782 5779 5776 5773 5770 5767 5764 5760 5755 5752 5749 5745 5741 5737 5735 5733 5731 5729 5726 5724 5722 5720 5717 5716 5714 5712 5711 5710 5709 5707 5706 5704 5703 5702 5701 5700 5699 5697 5697 5695 5694 5692 5690
5776 5773 5770 5767 5765 5762 5758 5755 5751 5748 5745 5740 5736 5734 5732 5729 5727 5724 5722 5719 5716 5714 5712 5710 5708 5707 5706 5705 5703 5701 5699 5697 5696 5695 5694 5694 5693 5692 5691 5690 5688 5686 5684
5772 5770 5767 5764 5760 5757 5753 5750 5747 5743 5739 5735 5732 5729 5726 5724 5721 5719 5716 5714 5711 5708 5706 5704 5702 5701 5700 5699 5698 5695 5693 5691 5689 5688 5687 5687 5686 5686 5685 5683 5682 5681 5678
5769 5765 5762 5759 5757 5753 5750 5746 5742 5738 5734 5730 5727 5724 5722 5719 5716 5714 5710 5707 5705 5703 5700 5698 5696 5694 5693 5692 5691 5690 5686 5684 5682 5681 5680 5680 5679 5677 5676 5675 5674 5673 5673
5764 5761 5758 5754 5752 5749 5745 5741 5737 5732 5728 5724 5721 5719 5716 5713 5711 5707 5704 5701 5699 5696 5694 5692 5690 5688 5687 5685 5684 5682 5679 5677 5675 5673 5672 5671 5670 5669 5667 5666 5665 5664 5664
5760 5757 5754 5750 5746 5742 5739 5734 5729 5725 5721 5718 5715 5713 5710 5707 5704 5701 5698 5695 5692 5689 5687 5685 5682 5680 5679 5678 5676 5674 5671 5669 5667 5666 5664 5663 5662 5661 5659 5657 5656 5655 5656
5753 5750 5748 5744 5739 5736 5732 5726 5721 5717 5715 5713 5710 5707 5705 5701 5697 5694 5691 5688 5685 5682 5679 5677 5674 5672 5670 5669 5667 5665 5663 5660 5658 5657 5656 5655 5654 5652 5650 5649 5648 5647 5647
5745 5743 5740 5736 5733 5729 5724 5718 5714 5710 5709 5706 5703 5700 5697 5694 5691 5687 5683 5680 5677 5674 5670 5668 5666 5663 5662 5660 5658 5656 5654 5652 5650 5649 5648 5647 5646 5645 5643 5641 5641 5640 5639
5735 5733 5730 5726 5723 5720 5716 5710 5705 5703 5701 5698 5695 5691 5689 5686 5683 5679 5675 5671 5668 5665 5662 5660 5658 5656 5654 5652 5650 5648 5647 5645 5643 5641 5640 5639 5638 5637 5636 5635 5634 5633 5631
5725 5723 5720 5715 5713 5710 5707 5702 5698 5695 5692 5688 5684 5681 5679 5676 5673 5670 5667 5662 5659 5656 5654 5651 5649 5647 5646 5644 5643 5641 5639 5638 5636 5634 5633 5632 5631 5630 5629 5628 5627 5625 5623
5714 5712 5709 5705 5702 5700 5697 5693 5690 5686 5682 5678 5675 5671 5669 5667 5664 5662 5658 5655 5651 5648 5646 5643 5641 5639 5637 5636 5634 5632 5630 5629 5627 5626 5625 5624 5623 5622 5621 5620 5619 5617 5616
5703 5701 5698 5695 5692 5690 5687 5685 5681 5677 5673 5669 5666 5663 5660 5657 5655 5653 5649 5647 5645 5642 5639 5636 5633 5631 5629 5628 5625 5622 5621 5620 5618 5616 5616 5616 5615 5615 5614 5612 5611 5610 5608
5691 5690 5689 5686 5682 5680 5678 5675 5672 5669 5665 5661 5657 5655 5652 5649 5646 5643 5641 5640 5638 5635 5632 5629 5626 5624 5621 5619 5617 5615 5613 5610 5609 5608 5607 5607 5606 5606 5605 5604 5603 5602 5601